Baker, MT

6:01 PM MDT on June 23, 2017 (GMT -0600)
Baker Municipal

Weather History for KBHK - February, 2014

Change the Weather History Date:

Thursday, February 6, 2014

  Actual Average Record
Temperature  
Mean Temperature -9 °F -  
Max Temperature -2 °F 40 °F 59 °F (2015)
Min Temperature -16 °F 30 °F -16 °F (2014)
Degree Days  
Heating Degree Days 74    
Moisture  
Dew Point -18 °F    
Average Humidity 70    
Maximum Humidity 79    
Minimum Humidity 54    
Precipitation  
Precipitation 0.00 in - - ()
Sea Level Pressure  
Sea Level Pressure 30.45 in    
Wind  
Wind Speed 12 mph (WNW)    
Max Wind Speed 18 mph    
Max Gust Speed 25 mph    
Visibility 10 miles    
Events      
Averages and records for this station are not official NWS values.
T = Trace of Precipitation, MM = Missing Value Source: NWS Daily Summary

Daily Weather History Graph

Daily Weather History Graph

Search for Another Location

Airport or City:

Trip Planner

Search our weather history database for the weather conditions in past years. The results will help you decide how hot, cold, wet, or windy it might be!

Date:

Astronomy

Feb. 06, 2014 Rise Set
Actual Time 7:13 AM MST 5:09 PM MST
Civil Twilight 6:41 AM MST 5:40 PM MST
Nautical Twilight 6:06 AM MST 6:16 PM MST
Astronomical Twilight 5:31 AM MST 6:51 PM MST
Moon 10:41 AM MST (2/6) 12:31 AM MST (2/6)
Length of Visible Light 10h 59m
Length of Day
9h 55m
Waxing Crescent, 50% of the Moon is Illuminated
Feb 6
Waxing Crescent
Feb 6
First Quarter
Feb 14
Full
Feb 22
Last Quarter
Mar 1
New

Hourly Weather History & Observations

Time (MST) Temp. Windchill Dew Point Humidity Pressure Visibility Wind Dir Wind Speed Gust Speed Precip Events Conditions
12:51 AM -8.0 °F -28.0 °F -14.1 °F 75% 30.67 in 6.0 mi West 12.7 mph - 0.00 in   Haze
1:51 AM -8.0 °F -28.0 °F -14.1 °F 75% 30.66 in 9.0 mi West 12.7 mph - N/A   Overcast
2:51 AM -9.0 °F -29.3 °F -15.0 °F 75% 30.63 in 10.0 mi WNW 12.7 mph - N/A   Overcast
3:51 AM -9.0 °F -30.9 °F -15.0 °F 75% 30.62 in 10.0 mi West 15.0 mph - N/A   Overcast
4:26 AM -11.0 °F -30.9 °F -17.0 °F 75% 30.37 in 10.0 mi West 11.5 mph - N/A   Scattered Clouds
4:51 AM -13.0 °F -34.3 °F -18.0 °F 78% 30.63 in 10.0 mi West 12.7 mph - N/A   Clear
5:51 AM -15.0 °F -36.8 °F -20.9 °F 75% 30.62 in 10.0 mi West 12.7 mph - N/A   Clear
6:09 AM -16.1 °F -35.0 °F -20.9 °F 79% 30.34 in 10.0 mi West 9.2 mph - N/A   Mostly Cloudy
6:51 AM -16.1 °F -36.2 °F -22.0 °F 74% 30.61 in 10.0 mi West 10.4 mph - N/A   Mostly Cloudy
7:00 AM -16.1 °F -35.0 °F -22.0 °F 74% 30.33 in 10.0 mi WNW 9.2 mph - N/A   Scattered Clouds
7:51 AM -16.1 °F -38.2 °F -22.0 °F 74% 30.61 in 10.0 mi West 12.7 mph - N/A   Clear
8:15 AM -16.1 °F -39.1 °F -22.0 °F 74% 30.33 in 9.0 mi West 13.8 mph - N/A   Partly Cloudy
8:51 AM -13.0 °F -35.2 °F -20.0 °F 71% 30.58 in 10.0 mi West 13.8 mph - N/A   Clear
9:51 AM -9.9 °F -32.8 °F -18.0 °F 68% 30.56 in 10.0 mi West 16.1 mph - N/A   Clear
10:51 AM -8.0 °F -31.6 °F -16.1 °F 68% 30.53 in 10.0 mi West 18.4 mph - N/A   Clear
11:51 AM -6.0 °F -27.7 °F -14.1 °F 68% 30.49 in 10.0 mi WNW 16.1 mph - N/A   Clear
12:51 PM -5.1 °F -27.2 °F -15.0 °F 62% 30.46 in 10.0 mi West 17.3 mph - N/A   Clear
1:51 PM -4.0 °F -25.8 °F -15.0 °F 59% 30.42 in 10.0 mi West 17.3 mph 25.3 mph N/A   Clear
2:51 PM -2.9 °F -25.0 °F -15.0 °F 56% 30.40 in 10.0 mi West 18.4 mph - N/A   Clear
3:51 PM -2.9 °F -24.4 °F -16.1 °F 54% 30.36 in 10.0 mi West 17.3 mph - N/A   Clear
4:51 PM -5.1 °F -26.6 °F -17.0 °F 57% 30.36 in 10.0 mi West 16.1 mph - N/A   Clear
5:51 PM -9.9 °F -27.5 °F -20.0 °F 61% 30.36 in 10.0 mi West 9.2 mph - N/A   Clear
6:51 PM -14.1 °F -28.3 °F -22.0 °F 68% 30.36 in 10.0 mi West 5.8 mph - N/A   Clear
7:51 PM -14.1 °F -23.9 °F -22.0 °F 68% 30.33 in 10.0 mi NNW 3.5 mph - N/A   Clear
8:51 PM -15.0 °F -25.0 °F -20.9 °F 75% 30.31 in 10.0 mi NNW 3.5 mph - N/A   Clear
9:51 PM -15.0 °F - -22.0 °F 71% 30.28 in 10.0 mi Calm Calm - N/A   Clear
10:51 PM -13.0 °F - -20.9 °F 68% 30.25 in 10.0 mi Calm Calm - N/A   Clear
11:51 PM -14.1 °F -26.3 °F -20.9 °F 71% 30.22 in 10.0 mi NNW 4.6 mph - N/A   Clear